Location: Pasarilla del Rebollar
(40.6790°N, 5.0062°W)
Time: 11:18:24
(UTC+00:00)

Cosmos 2237 Rocket - Pass Details

Date: 22 April 2026
Orbit: 833 x 850 km, 71.0° (Epoch: 15 May)

Event Time Altitude Azimuth Distance (km) Brightness Sun altitude
Rises 04:42:36 0° 341° (NNW) 3,422 5.4 -9.4°
Reaches altitude 10° 04:45:10 10° 347° (NNW) 2,481 4.8 -9.0°
Maximum altitude 04:50:40 48° 61° (ENE) 1,098 3.4 -8.0°
Drops below altitude 10° 04:56:06 10° 136° (SE) 2,458 4.9 -7.1°
Sets 04:58:37 0° 142° (SE) 3,387 5.6 -6.6°
